When you browse on this site, cookies collect data to enhance your experience and personalize the content and advertising you see.
Visit our Privacy Policy to learn more. By continuing to use the site, you agree to this use of cookies and data.
  • In Hungary
  • List of Countries
  • For 7 days
  • Water Temperature
  • Weather Map
  • News
  • Weather Widgets
  • user-avatar
    Login

    Hourly Weather Knopka

    Today, 8 December, Sunday

    Time Temperature Precipitation Wind Pressure Humidity
    00:00 +4°C° 0 mm 6 mps 740 mmHg 81%
    01:00 +4°C° 0 mm 6 mps 740 mmHg 81%
    02:00 +5°C° 0 mm 5 mps 740 mmHg 81%
    03:00 +3°C° 0 mm 5 mps 740 mmHg 82%
    04:00 +4°C° 0 mm 4 mps 739 mmHg 83%
    05:00 +3°C° 0 mm 5 mps 739 mmHg 83%
    06:00 +2°C° 0 mm 5 mps 739 mmHg 83%
    07:00 +3°C° 0 mm 4 mps 739 mmHg 85%
    08:00 +3°C° 0 mm 5 mps 739 mmHg 82%
    09:00 +4°C° 0 mm 6 mps 738 mmHg 79%
    10:00 +5°C° 0 mm 6 mps 738 mmHg 76%
    11:00 +5°C° 0 mm 6 mps 737 mmHg 73%
    12:00 +6°C° 0 mm 7 mps 736 mmHg 70%
    13:00 +6°C° 0 mm 7 mps 736 mmHg 68%
    14:00 +6°C° 0 mm 7 mps 735 mmHg 69%
    15:00 +5°C° 0 mm 7 mps 735 mmHg 70%
    16:00 +5°C° 0 mm 7 mps 734 mmHg 71%
    17:00 +5°C° 0.1 mm 7 mps 734 mmHg 72%
    18:00 +6°C° 0.1 mm 7 mps 734 mmHg 72%
    19:00 +6°C° 0.1 mm 7 mps 734 mmHg 72%
    20:00 +6°C° 0.5 mm 7 mps 734 mmHg 75%
    21:00 +6°C° 0.5 mm 7 mps 733 mmHg 78%
    22:00 +6°C° 0.5 mm 7 mps 733 mmHg 81%
    23:00 +6°C° 0 mm 7 mps 733 mmHg 79%

    Tomorrow, 9 December, Monday

    Time Temperature Precipitation Wind Pressure Humidity
    00:00 +6°C° 0 mm 7 mps 733 mmHg 78%
    01:00 +7°C° 0 mm 6 mps 733 mmHg 76%
    02:00 +7°C° 0.7 mm 6 mps 732 mmHg 80%
    03:00 +7°C° 0.7 mm 5 mps 732 mmHg 85%
    04:00 +6°C° 0.7 mm 4 mps 732 mmHg 89%
    05:00 +6°C° 0.2 mm 4 mps 732 mmHg 89%
    06:00 +7°C° 0.2 mm 3 mps 732 mmHg 88%
    07:00 +7°C° 0.2 mm 3 mps 732 mmHg 87%
    08:00 +7°C° 0 mm 3 mps 733 mmHg 81%
    09:00 +6°C° 0 mm 4 mps 733 mmHg 76%
    10:00 +6°C° 0 mm 4 mps 733 mmHg 70%
    11:00 +6°C° 0 mm 5 mps 733 mmHg 67%
    12:00 +7°C° 0 mm 5 mps 733 mmHg 64%
    13:00 +7°C° 0 mm 6 mps 733 mmHg 62%
    14:00 +7°C° 0 mm 5 mps 732 mmHg 63%
    15:00 +6°C° 0 mm 5 mps 732 mmHg 65%
    16:00 +6°C° 0 mm 5 mps 732 mmHg 67%
    17:00 +5°C° 0 mm 5 mps 732 mmHg 70%
    18:00 +5°C° 0 mm 5 mps 733 mmHg 74%
    19:00 +3°C° 0 mm 5 mps 733 mmHg 77%
    20:00 +3°C° 0 mm 5 mps 733 mmHg 78%
    21:00 +3°C° 0 mm 5 mps 733 mmHg 79%
    22:00 +3°C° 0 mm 5 mps 734 mmHg 80%
    23:00 +3°C° 0 mm 5 mps 734 mmHg 81%

    Day after tomorrow, 10 December, Tuesday

    Time Temperature Precipitation Wind Pressure Humidity
    00:00 +3°C° 0 mm 5 mps 735 mmHg 82%
    01:00 +3°C° 0 mm 5 mps 735 mmHg 84%
    02:00 +3°C° 0.1 mm 6 mps 736 mmHg 78%
    03:00 +2°C° 0.1 mm 6 mps 737 mmHg 72%
    04:00 +2°C° 0.1 mm 7 mps 737 mmHg 66%
    05:00 0°C° 0 mm 7 mps 738 mmHg 70%
    06:00 -1°C° 0 mm 7 mps 739 mmHg 73%
    07:00 -1°C° 0 mm 7 mps 740 mmHg 76%
    08:00 -1°C° 0 mm 8 mps 741 mmHg 70%
    09:00 -1°C° 0 mm 8 mps 742 mmHg 63%
    10:00 -1°C° 0 mm 9 mps 743 mmHg 57%
    11:00 -1°C° 0 mm 9 mps 744 mmHg 55%
    12:00 -1°C° 0 mm 8 mps 744 mmHg 54%
    13:00 -1°C° 0 mm 8 mps 745 mmHg 52%
    14:00 -1°C° 0 mm 7 mps 746 mmHg 52%
    15:00 -2°C° 0 mm 6 mps 746 mmHg 53%
    16:00 -1°C° 0 mm 5 mps 747 mmHg 54%
    17:00 -2°C° 0 mm 4 mps 747 mmHg 56%
    18:00 -2°C° 0 mm 4 mps 748 mmHg 59%
    19:00 -2°C° 0 mm 3 mps 748 mmHg 61%
    20:00 -2°C° 0 mm 3 mps 748 mmHg 63%
    21:00 -2°C° 0 mm 3 mps 748 mmHg 66%
    22:00 -2°C° 0 mm 2 mps 748 mmHg 68%
    23:00 -2°C° 0 mm 2 mps 748 mmHg 70%

    11 December, Wednesday

    Time Temperature Precipitation Wind Pressure Humidity
    00:00 -2°C° 0 mm 2 mps 748 mmHg 71%
    01:00 0°C° 0 mm 1 mps 748 mmHg 73%
    02:00 -1°C° 0 mm 1 mps 747 mmHg 73%
    03:00 -1°C° 0 mm 1 mps 747 mmHg 72%
    04:00 -3°C° 0 mm 2 mps 747 mmHg 72%
    05:00 -3°C° 0 mm 2 mps 746 mmHg 71%
    06:00 -4°C° 0 mm 3 mps 746 mmHg 70%
    07:00 -4°C° 0 mm 3 mps 745 mmHg 69%
    08:00 -3°C° 0 mm 4 mps 745 mmHg 64%
    09:00 -4°C° 0 mm 5 mps 745 mmHg 59%
    10:00 -2°C° 0 mm 5 mps 744 mmHg 54%
    11:00 -2°C° 0 mm 5 mps 744 mmHg 52%
    12:00 -1°C° 0 mm 5 mps 743 mmHg 50%
    13:00 -1°C° 0 mm 5 mps 742 mmHg 47%
    14:00 -1°C° 0 mm 5 mps 742 mmHg 51%
    15:00 -2°C° 0 mm 5 mps 741 mmHg 54%
    16:00 -2°C° 0 mm 5 mps 740 mmHg 57%
    17:00 -2°C° 0 mm 5 mps 740 mmHg 57%
    18:00 -4°C° 0 mm 5 mps 739 mmHg 56%
    19:00 -4°C° 0 mm 5 mps 739 mmHg 56%
    20:00 -4°C° 0 mm 5 mps 738 mmHg 56%
    21:00 -4°C° 0 mm 5 mps 738 mmHg 57%
    22:00 -4°C° 0 mm 6 mps 738 mmHg 57%
    23:00 -4°C° 0 mm 5 mps 737 mmHg 58%

    12 December, Thursday

    Time Temperature Precipitation Wind Pressure Humidity
    00:00 -4°C° 0 mm 5 mps 737 mmHg 58%
    01:00 -4°C° 0 mm 5 mps 736 mmHg 59%
    02:00 -4°C° 0 mm 5 mps 736 mmHg 61%
    03:00 -4°C° 0 mm 5 mps 735 mmHg 62%
    04:00 -4°C° 0 mm 6 mps 734 mmHg 64%
    05:00 -4°C° 0.3 mm 5 mps 734 mmHg 74%
    06:00 -4°C° 0.3 mm 5 mps 734 mmHg 84%
    07:00 -4°C° 0.3 mm 5 mps 734 mmHg 94%
    08:00 -4°C° 0.2 mm 5 mps 734 mmHg 91%
    09:00 -2°C° 0.2 mm 5 mps 735 mmHg 87%
    10:00 -1°C° 0.2 mm 5 mps 735 mmHg 84%
    11:00 0°C° 0 mm 5 mps 735 mmHg 86%
    12:00 0°C° 0 mm 5 mps 735 mmHg 88%
    13:00 0°C° 0 mm 5 mps 735 mmHg 90%
    14:00 0°C° 0 mm 4 mps 736 mmHg 90%
    15:00 0°C° 0 mm 3 mps 736 mmHg 90%
    16:00 +1°C° 0 mm 2 mps 736 mmHg 91%
    17:00 -1°C° 0 mm 2 mps 736 mmHg 90%
    18:00 -1°C° 0 mm 2 mps 736 mmHg 90%
    19:00 -2°C° 0 mm 2 mps 736 mmHg 90%
    20:00 -2°C° 0 mm 3 mps 736 mmHg 90%
    21:00 -2°C° 0 mm 3 mps 735 mmHg 91%
    22:00 -3°C° 0 mm 4 mps 735 mmHg 91%
    23:00 -3°C° 0 mm 4 mps 734 mmHg 90%

    13 December, Friday

    Time Temperature Precipitation Wind Pressure Humidity
    00:00 -3°C° 0 mm 4 mps 734 mmHg 89%
    01:00 -3°C° 0 mm 4 mps 733 mmHg 88%
    02:00 -3°C° 0 mm 4 mps 732 mmHg 88%
    03:00 -3°C° 0 mm 4 mps 731 mmHg 87%
    04:00 -4°C° 0 mm 5 mps 730 mmHg 87%
    05:00 -4°C° 0 mm 5 mps 729 mmHg 86%
    06:00 -4°C° 0 mm 6 mps 728 mmHg 84%
    07:00 -4°C° 0 mm 7 mps 727 mmHg 83%
    08:00 -4°C° 0 mm 8 mps 726 mmHg 76%
    09:00 -3°C° 0 mm 9 mps 725 mmHg 69%
    10:00 -1°C° 0 mm 9 mps 725 mmHg 62%
    11:00 -1°C° 0 mm 9 mps 724 mmHg 62%
    12:00 -1°C° 0 mm 8 mps 723 mmHg 62%
    13:00 -1°C° 0 mm 7 mps 722 mmHg 61%
    14:00 -1°C° 0.6 mm 6 mps 722 mmHg 71%
    15:00 -2°C° 0.6 mm 6 mps 722 mmHg 80%
    16:00 -2°C° 0.6 mm 5 mps 722 mmHg 90%
    17:00 -2°C° 0.1 mm 5 mps 723 mmHg 90%
    18:00 -1°C° 0.1 mm 5 mps 723 mmHg 91%
    19:00 -1°C° 0.1 mm 5 mps 723 mmHg 91%
    20:00 -1°C° 0 mm 5 mps 724 mmHg 90%
    21:00 -2°C° 0 mm 4 mps 724 mmHg 89%
    22:00 -2°C° 0 mm 4 mps 724 mmHg 88%
    23:00 -2°C° 0 mm 4 mps 725 mmHg 86%
    Show more